Simultaneous Nadir Overpasses (SNOs) Predictions

Prediction of SNOs between METOP-A and NOAA-19 Satellite Orbit:

Table of predicted SNOs for the next 14.0 days since TLE Epoch: 6/20/2020
Index Date (METOP-A) Time (METOP-A) Lat,Lon (METOP-A) SZA (METOP-A ) Date (NOAA-19) Time (NOAA-19) Lat,Lon (NOAA-19) SZA (NOAA-19 ) Distance(km) Time Diff (sec)
1 06/24/2020 12:24:00 -80.57,-172.20 122.61 06/24/2020 12:23:04 -80.55,-172.23 122.64 2.29 56
2 06/24/2020 13:14:41 80.56, -5.03 57.38 06/24/2020 13:14:02 80.56, -5.13 57.37 1.79 39
3 06/24/2020 14:05:22 -80.56, 162.31 122.62 06/24/2020 14:05:04 -80.54, 162.47 122.63 3.47 18
4 06/24/2020 14:56:03 80.55, -30.52 57.37 06/24/2020 14:56:02 80.55, -30.43 57.37 1.60 1
5 06/24/2020 15:46:43 -80.55, 136.83 122.64 06/24/2020 15:47:04 -80.55, 136.83 122.63 0.06 21
6 06/24/2020 16:37:23 80.56, -55.67 57.39 06/24/2020 16:38:01 80.54, -55.73 57.37 2.53 38
7 06/24/2020 17:28:05 -80.54, 111.35 122.65 06/24/2020 17:29:04 -80.54, 111.54 122.63 3.38 59




NCC Satellite Simultaneous Nadir Overpasses (SNOs) Prediction Service
